IUS DEB, 43362

Orbit data source: Space-Track

IUS DEB, 43362 is space debris originally from a launch on Fri, 23 Jul 1999 UTC launched from the Air Force Eastern Test Range (AFETR). Debris objects in space refer to the collection of defunct objects orbiting the Earth. Examples of debris include non-operational satellites, rocket bodies, and fragments generated from explosions, collisions, or faulty payload assembly.

Loading next visibility...
Identifier
43362, 1999-040K
Orbit
Active
Country
Flag of USUS
Related business
Manufacturer
Boeing/Kent
Mission
Spacecraft
Bus & Motor
Unknown
Mass
Unknown
Launch date (UTC)
1999-07-23 (26 years ago)
Launch vehicle
Unknown
Launch site
Air Force Eastern Test Range (AFETR)
Object type
Payload
Rocket body
Debris
Shape & HBR
Unknown
Radar Cross Section
Small (<0.1 m²)

Expand to show TLE details & history
Last TLE update: 2 days ago

TLE from 2 days ago
0 IUS DEB
1 43362U 99040K   25260.19310863 -.00001007  00000-0 -82648-2 0  9996
2 43362  28.0648 252.8949 3685724 151.3864 235.1210  7.09417088248833
Epoch: 2025-09-17T04:38Z
TLE epoch observation values (Epoch: 2025-09-17T04:38:04.585Z)
Latitude
Longitude
-172.99677°
Altitude
8,233.941 km
Speed
4.442 km/s
True Right ascension
16h 51m 34s
True Declination
0° 00' 00"
Sunlit
Object was in daylight at epoch
Visualization orbit readout
Latitude
Unknown
Longitude
Unknown
Altitude
Unknown
Speed
Unknown
Apparent Right ascension
Unknown
Apparent Declination
Unknown
Sunlit
N/A
Visualization observer readout
Local Sidereal Time
17:43:06
Azimuth
Unknown
Elevation
Unknown
Doppler factor
Unknown
Orbital elements
Apogee altitude
9,284.215 km
Perigee altitude
848.109 km
Semi-major axis
11,444.299 km
Eccentricity
0.36857
Inclination
28.0648°
RAAN
252.8949°
Arg. of periapsis
151.3864°
True anomaly
208.65098°
Mean anomaly
235.121°
Eccentric anomaly
221.20864°
Mean motion
1.7728 °/min
Orbital period
203.07 mins
BSTAR
-0.0082648
Loading maneuver chart data...
Computing Atmospheric mass density...
Loading historical data...
Loading historical data...
Loading historical data...
Loading historical data...
Loading historical data...
Loading historical data...
Loading historical data...

Documentation

Showing up to 5 results
|